Regional Weather Roundup
Issued by NWS

Home | Current Version | Previous Version | Graphics & Text | Print | Product List | Glossary On
Versions: 1 2 3 4 5 6 7 8 9 10 11 12 13 14 15 16 17 18 19 20 21 22 23 24 25 26 27 28 29 30 31 32 33 34 35 36 37 38 39 40 41 42 43 44 45 46 47 48 49 50
000
ASUS43 KOAX 272210
RWRNE

WEATHER ROUNDUP FOR NEBRASKA
NATIONAL WEATHER SERVICE OMAHA NE
500 PM CDT TUE SEP 27 2016

NOTES: SATELLITE DATA IS BEING USED TO AUGMENT CLOUD COVER ABOVE
       12000 FEET.
       "FAIR" INDICATES FEW OR NO CLOUDS BELOW 12,000 FEET WITH NO
       SIGNIFICANT WEATHER AND/OR OBSTRUCTIONS TO VISIBILITY.

  * THESE STATIONS DO NOT REPORT WEATHER SUCH AS RAIN...SNOW OR FOG.

NEZ001>004-019>022-054>056-272300-
NEBRASKA PANHANDLE

CITY           SKY/WX    TMP DP  RH WIND       PRES   REMARKS
SCOTTSBLUFF    SUNNY     83  36  18 VRB3      30.05F
ALLIANCE       SUNNY     84  31  14 NW8       30.03F
CHADRON        SUNNY     85  32  15 NW13      29.99F
KIMBALL        SUNNY     81  36  20 NE5       30.11S
SIDNEY         SUNNY     84  31  14 N5        30.08F
$$

NEZ057>060-069>072-079>082-272300-
SOUTHWEST NEBRASKA

CITY           SKY/WX    TMP DP  RH WIND       PRES   REMARKS
NORTH PLATTE   SUNNY     86  43  22 W12       29.95F
IMPERIAL       SUNNY     85  33  15 W10       30.01F
LEXINGTON      SUNNY     85  41  21 NW13G20   29.94F
MCCOOK         SUNNY     85  43  22 W9        29.97F
OGALLALA       SUNNY     87  32  14 NW7       30.00F
$$

NEZ005>010-023>029-035>040-094-272300-
NORTH CENTRAL NEBRASKA

CITY           SKY/WX    TMP DP  RH WIND       PRES   REMARKS
VALENTINE      SUNNY     83  34  17 N16       29.95S
AINSWORTH      SUNNY     82  41  23 NW17G25   29.94F
BROKEN BOW     SUNNY     86  42  21 NW14      29.92F
O`NEILL        SUNNY     81  38  21 NW14      29.91S
ORD            SUNNY     83  40  21 NW13      29.89F
THEDFORD       SUNNY     85  44  23 NW17G25   29.96F
$$

NEZ041-046>049-061>064-073>077-083>087-272300-
SOUTH CENTRAL NEBRASKA

CITY           SKY/WX    TMP DP  RH WIND       PRES   REMARKS
GRAND ISLAND   SUNNY     83  45  26 W12       29.91F
AURORA         SUNNY     81  44  26 NW10G16   29.91F
HASTINGS       SUNNY     83  44  25 W14G20    29.93F
HEBRON         SUNNY     81  44  27 W7        29.90F
HOLDREGE       SUNNY     82  42  23 NW7       29.94F
KEARNEY *      SUNNY     84  43  23 W16       29.91F
YORK           SUNNY     81  45  28 NW10      29.91F
$$

NEZ011>018-030>034-042>045-272300-
NORTHEAST NEBRASKA

CITY           SKY/WX    TMP DP  RH WIND       PRES   REMARKS
NORFOLK        SUNNY     78  44  29 NW10      29.89F
ALBION         SUNNY     81  43  25 W8        29.89F
BLAIR          SUNNY     77  44  30 NW9G18    29.88F
FREMONT        SUNNY     77  43  29 NW10G16   29.89F
TEKAMAH        SUNNY     79  41  25 W14       29.86F
WAYNE          SUNNY     75  46  34 NW12G20   29.89F
$$

NEZ050>053-065>068-078-088>093-272300-
SOUTHEAST NEBRASKA

CITY           SKY/WX    TMP DP  RH WIND       PRES   REMARKS
LINCOLN        SUNNY     82  45  27 NW9       29.90F
OMAHA EPPLEY   SUNNY     79  43  27 NW12      29.87F
BEATRICE       SUNNY     81  49  31 NW9G16    29.89F
FALLS CITY     SUNNY     77  51  40 NW7       29.88F
NEBRASKA CITY  SUNNY     77  28  16 NW7       29.88F
PLATTSMOUTH    SUNNY     78  33  19 W7        29.89S
$$

NEZ044-045-051>053-067-272300-
OMAHA AREA

CITY           SKY/WX    TMP DP  RH WIND       PRES   REMARKS
OMAHA EPPLEY   SUNNY     79  43  27 NW12      29.87F
BLAIR          SUNNY     77  44  30 NW9G18    29.88F
FREMONT        SUNNY     77  43  29 NW10G16   29.89F
MILLARD        SUNNY     78  47  33 NW7       29.88F
OFFUTT AFB     SUNNY     76  44  31 W9        29.87F
PLATTSMOUTH    SUNNY     78  33  19 W7        29.89S
WAHOO          FAIR      80  41  24 NW12      29.88F
$$




USA.gov is the U.S. government's official web portal to all federal, state and local government web resources and services.